Time,TemperatureF,DewpointF,PressureIn,WindDirection,WindDirectionDegrees,WindSpeedMPH,WindSpeedGustMPH,Humidity,HourlyPrecipIn,Conditions,Clouds,dailyrainin,SoftwareType,DateUTC
2013-04-10 00:01:00,11.6,8.5,30.10,SE,134,0.0,0.0,87,0.00,,---,0.00,VWS V14.01,2013-04-10 06:01:00,
2013-04-10 00:11:00,11.4,8.3,30.10,SE,135,0.0,0.0,87,0.00,,---,0.00,VWS V14.01,2013-04-10 06:11:00,
2013-04-10 00:21:00,11.2,8.1,30.09,SE,134,0.0,0.0,87,0.00,,---,0.00,VWS V14.01,2013-04-10 06:21:00,
2013-04-10 00:31:00,9.9,6.6,30.11,SE,135,0.0,0.0,86,0.00,,---,0.00,VWS V14.01,2013-04-10 06:31:00,
2013-04-10 01:01:00,6.7,3.2,30.12,SE,135,0.0,0.0,85,0.00,,---,0.00,VWS V14.01,2013-04-10 07:01:00,
2013-04-10 01:11:00,6.9,3.9,30.10,SE,135,0.0,0.0,87,0.00,,---,0.00,VWS V14.01,2013-04-10 07:11:00,
2013-04-10 01:21:00,5.0,1.5,30.11,SE,135,0.0,0.0,85,0.00,,---,0.00,VWS V14.01,2013-04-10 07:21:00,
2013-04-10 01:41:00,6.1,3.1,30.11,SE,135,0.0,0.0,87,0.00,,---,0.00,VWS V14.01,2013-04-10 07:41:00,
2013-04-10 02:01:00,5.3,2.0,30.11,SE,136,0.0,5.0,86,0.00,,---,0.00,VWS V14.01,2013-04-10 08:01:00,
2013-04-10 02:11:00,6.4,3.1,30.09,SE,136,0.0,0.0,86,0.00,,---,0.00,VWS V14.01,2013-04-10 08:11:00,
2013-04-10 02:31:00,7.6,4.6,30.06,SE,136,0.0,0.0,87,0.00,,---,0.00,VWS V14.01,2013-04-10 08:31:00,
2013-04-10 03:01:00,7.7,4.4,30.07,SE,136,0.0,0.0,86,0.00,,---,0.00,VWS V14.01,2013-04-10 09:01:00,
2013-04-10 03:11:00,8.1,5.0,30.05,SE,136,0.0,0.0,87,0.00,,---,0.00,VWS V14.01,2013-04-10 09:11:00,
2013-04-10 03:21:00,8.5,5.4,30.05,SE,136,0.0,0.0,87,0.00,,---,0.00,VWS V14.01,2013-04-10 09:21:00,
2013-04-10 03:31:00,8.7,5.6,30.05,SE,136,0.0,0.0,87,0.00,,---,0.00,VWS V14.01,2013-04-10 09:31:00,
2013-04-10 04:01:00,8.6,5.5,30.05,SE,136,0.0,0.0,87,0.00,,---,0.00,VWS V14.01,2013-04-10 10:01:00,
2013-04-10 04:11:00,8.6,5.5,30.07,SE,136,0.0,0.0,87,0.00,,---,0.00,VWS V14.01,2013-04-10 10:11:00,
2013-04-10 04:21:00,8.7,5.6,30.07,SE,136,0.0,0.0,87,0.00,,---,0.00,VWS V14.01,2013-04-10 10:21:00,
2013-04-10 04:51:00,8.9,5.8,30.08,SE,136,0.0,0.0,87,0.00,,---,0.00,VWS V14.01,2013-04-10 10:51:00,
2013-04-10 05:01:00,9.1,6.0,30.08,SE,136,0.0,0.0,87,0.00,,---,0.00,VWS V14.01,2013-04-10 11:01:00,
2013-04-10 05:11:00,9.1,6.0,30.10,SE,136,0.0,0.0,87,0.00,,---,0.00,VWS V14.01,2013-04-10 11:11:00,
2013-04-10 05:21:00,9.0,5.9,30.11,SE,136,0.0,0.0,87,0.00,,---,0.00,VWS V14.01,2013-04-10 11:21:00,
2013-04-10 05:31:00,8.7,5.4,30.12,SE,136,0.0,0.0,86,0.00,,---,0.00,VWS V14.01,2013-04-10 11:31:00,
2013-04-10 05:41:00,8.2,4.9,30.12,SE,136,0.0,0.0,86,0.00,,---,0.00,VWS V14.01,2013-04-10 11:41:00,
2013-04-10 06:01:00,6.0,2.5,30.14,SE,136,0.0,0.0,85,0.00,,---,0.00,VWS V14.01,2013-04-10 12:01:00,
2013-04-10 06:11:00,5.0,1.5,30.16,SE,136,0.0,0.0,85,0.00,,---,0.00,VWS V14.01,2013-04-10 12:11:00,
2013-04-10 06:21:00,5.0,1.5,30.16,SE,136,0.0,0.0,85,0.00,,---,0.00,VWS V14.01,2013-04-10 12:21:00,
2013-04-10 06:31:00,4.5,1.0,30.16,SE,136,0.0,0.0,85,0.00,,---,0.00,VWS V14.01,2013-04-10 12:31:00,
2013-04-10 06:51:00,3.5,-0.2,30.19,SE,136,0.0,0.0,84,0.00,,---,0.00,VWS V14.01,2013-04-10 12:51:00,
2013-04-10 07:01:00,3.2,-0.3,30.19,SE,136,0.0,0.0,85,0.00,,---,0.00,VWS V14.01,2013-04-10 13:01:00,
2013-04-10 07:11:00,4.0,0.5,30.19,SE,136,0.0,0.0,85,0.00,,---,0.00,VWS V14.01,2013-04-10 13:11:00,
2013-04-10 07:21:00,5.4,2.1,30.18,SE,136,0.0,0.0,86,0.00,,---,0.00,VWS V14.01,2013-04-10 13:21:00,
2013-04-10 07:31:00,6.3,3.0,30.17,SE,136,0.0,0.0,86,0.00,,---,0.00,VWS V14.01,2013-04-10 13:31:00,
2013-04-10 07:51:00,6.9,3.3,30.17,SE,136,0.0,0.0,85,0.00,,---,0.00,VWS V14.01,2013-04-10 13:51:00,
2013-04-10 08:21:00,11.3,8.2,30.13,SE,136,0.0,0.0,87,0.00,,---,0.00,VWS V14.01,2013-04-10 14:21:00,
2013-04-10 08:31:00,12.1,8.7,30.11,SE,136,0.0,0.0,86,0.00,,---,0.00,VWS V14.01,2013-04-10 14:31:00,
2013-04-10 08:41:00,12.3,8.7,30.11,SE,136,0.0,0.0,85,0.00,,---,0.00,VWS V14.01,2013-04-10 14:41:00,
2013-04-10 08:51:00,12.1,8.2,30.12,SE,136,0.0,0.0,84,0.00,,---,0.00,VWS V14.01,2013-04-10 14:51:00,
2013-04-10 09:01:00,12.3,8.4,30.11,SE,136,0.0,0.0,84,0.00,,---,0.00,VWS V14.01,2013-04-10 15:01:00,
2013-04-10 09:11:00,12.5,8.6,30.13,SE,136,0.0,0.0,84,0.00,,---,0.00,VWS V14.01,2013-04-10 15:11:00,
2013-04-10 09:21:00,13.0,8.8,30.11,SE,136,0.0,0.0,83,0.00,,---,0.00,VWS V14.01,2013-04-10 15:21:00,
2013-04-10 09:31:00,14.2,10.3,30.10,SE,136,0.0,0.0,84,0.00,,---,0.00,VWS V14.01,2013-04-10 15:31:00,
2013-04-10 09:41:00,14.0,9.5,30.11,SE,138,3.0,7.0,82,0.00,,---,0.00,VWS V14.01,2013-04-10 15:41:00,
2013-04-10 10:01:00,15.2,10.7,30.11,SE,144,3.0,7.0,82,0.00,,---,0.00,VWS V14.01,2013-04-10 16:01:00,
2013-04-10 10:11:00,16.0,11.5,30.11,SSE,147,6.0,10.0,82,0.01,,---,0.01,VWS V14.01,2013-04-10 16:11:00,
2013-04-10 10:21:00,16.2,11.7,30.10,SW,215,16.0,19.0,82,0.01,,---,0.01,VWS V14.01,2013-04-10 16:21:00,
2013-04-10 11:01:00,25.1,17.4,29.99,North,355,24.0,27.0,72,0.01,,---,0.01,VWS V14.01,2013-04-10 17:01:00,
2013-04-10 11:11:00,25.9,17.1,29.97,North,350,25.0,26.0,69,0.01,,---,0.01,VWS V14.01,2013-04-10 17:11:00,
2013-04-10 11:21:00,26.3,15.8,29.97,North,355,18.0,30.0,64,0.00,,---,0.01,VWS V14.01,2013-04-10 17:21:00,
2013-04-10 11:41:00,28.0,15.5,29.94,North,349,23.0,29.0,59,0.00,,---,0.01,VWS V14.01,2013-04-10 17:41:00,
2013-04-10 11:51:00,28.4,15.5,29.93,North,360,18.0,32.0,58,0.00,,---,0.01,VWS V14.01,2013-04-10 17:51:00,
2013-04-10 12:11:00,29.7,15.1,29.98,NNW,346,16.0,29.0,54,0.00,,---,0.01,VWS V14.01,2013-04-10 18:11:00,
2013-04-10 12:31:00,30.2,15.6,29.97,NNW,348,20.0,30.0,54,0.00,,---,0.01,VWS V14.01,2013-04-10 18:31:00,
2013-04-10 12:41:00,30.8,16.1,29.94,North,355,19.0,29.0,54,0.00,,---,0.01,VWS V14.01,2013-04-10 18:41:00,
2013-04-10 12:51:00,30.9,15.4,29.95,NNW,346,16.0,28.0,52,0.00,,---,0.01,VWS V14.01,2013-04-10 18:51:00,
2013-04-10 13:01:00,31.4,16.7,29.94,NNW,344,16.0,27.0,54,0.00,,---,0.01,VWS V14.01,2013-04-10 19:01:00,
2013-04-10 13:11:00,31.8,16.6,29.96,NNW,347,19.0,27.0,53,0.00,,---,0.01,VWS V14.01,2013-04-10 19:11:00,
2013-04-10 13:31:00,32.1,16.9,29.96,NNW,330,20.0,26.0,53,0.00,,---,0.01,VWS V14.01,2013-04-10 19:31:00,
2013-04-10 13:51:00,31.9,17.6,29.95,NNW,332,12.0,25.0,55,0.00,,---,0.01,VWS V14.01,2013-04-10 19:51:00,
2013-04-10 14:01:00,32.0,20.5,29.95,NNW,338,19.0,24.0,62,0.00,,---,0.01,VWS V14.01,2013-04-10 20:01:00,
2013-04-10 14:11:00,32.6,18.7,29.92,NNW,344,14.0,22.0,56,0.00,,---,0.01,VWS V14.01,2013-04-10 20:11:00,
2013-04-10 14:21:00,32.6,18.7,29.91,North,355,16.0,20.0,56,0.00,,---,0.01,VWS V14.01,2013-04-10 20:21:00,
2013-04-10 14:41:00,32.7,18.8,29.91,North,355,17.0,26.0,56,0.00,,---,0.01,VWS V14.01,2013-04-10 20:41:00,
2013-04-10 14:51:00,32.5,19.0,29.91,North,355,22.0,27.0,57,0.00,,---,0.01,VWS V14.01,2013-04-10 20:51:00,
2013-04-10 15:01:00,32.5,19.0,29.90,NNW,344,20.0,31.0,57,0.00,,---,0.01,VWS V14.01,2013-04-10 21:01:00,
2013-04-10 15:11:00,33.3,18.9,29.88,NNW,345,24.0,31.0,55,0.00,,---,0.01,VWS V14.01,2013-04-10 21:11:00,
2013-04-10 15:21:00,32.9,19.8,29.87,North,355,25.0,31.0,58,0.00,,---,0.01,VWS V14.01,2013-04-10 21:21:00,
2013-04-10 15:31:00,32.4,18.9,29.89,North,355,21.0,29.0,57,0.00,,---,0.01,VWS V14.01,2013-04-10 21:31:00,
2013-04-10 15:51:00,33.2,18.4,29.87,North,355,19.0,27.0,54,0.00,,---,0.01,VWS V14.01,2013-04-10 21:51:00,
2013-04-10 16:01:00,33.1,18.3,29.86,NNW,339,19.0,26.0,54,0.00,,---,0.01,VWS V14.01,2013-04-10 22:01:00,
2013-04-10 16:21:00,33.3,17.6,29.85,NNW,348,19.0,27.0,52,0.00,,---,0.01,VWS V14.01,2013-04-10 22:21:00,
2013-04-10 16:31:00,33.7,17.5,29.85,NNW,346,16.0,25.0,51,0.00,,---,0.01,VWS V14.01,2013-04-10 22:31:00,
2013-04-10 16:51:00,34.4,17.2,29.85,NNW,343,18.0,27.0,49,0.00,,---,0.01,VWS V14.01,2013-04-10 22:51:00,
2013-04-10 17:01:00,33.1,17.4,29.85,NNW,342,22.0,28.0,52,0.00,,---,0.01,VWS V14.01,2013-04-10 23:01:00,
2013-04-10 17:21:00,33.6,18.3,29.90,North,349,17.0,31.0,53,0.00,,---,0.01,VWS V14.01,2013-04-10 23:21:00,
2013-04-10 17:31:00,33.8,17.6,29.88,North,355,26.0,29.0,51,0.00,,---,0.01,VWS V14.01,2013-04-10 23:31:00,
2013-04-10 17:41:00,33.4,16.8,29.88,North,360,17.0,29.0,50,0.00,,---,0.01,VWS V14.01,2013-04-10 23:41:00,
2013-04-10 17:51:00,32.5,16.4,29.90,NNW,334,19.0,27.0,51,0.00,,---,0.01,VWS V14.01,2013-04-10 23:51:00,
2013-04-10 18:01:00,32.6,16.0,29.91,North,355,18.0,29.0,50,0.00,,---,0.01,VWS V14.01,2013-04-11 00:01:00,
2013-04-10 18:11:00,31.8,17.5,29.94,NNW,346,24.0,31.0,55,0.00,,---,0.01,VWS V14.01,2013-04-11 00:11:00,
2013-04-10 18:21:00,30.9,15.8,29.95,NNW,331,21.0,31.0,53,0.00,,---,0.01,VWS V14.01,2013-04-11 00:21:00,
2013-04-10 18:31:00,30.5,16.3,29.95,NNW,338,18.0,30.0,55,0.00,,---,0.01,VWS V14.01,2013-04-11 00:31:00,
2013-04-10 18:51:00,29.7,15.1,29.99,North,350,18.0,28.0,54,0.00,,---,0.01,VWS V14.01,2013-04-11 00:51:00,
2013-04-10 19:21:00,29.2,15.1,29.97,NNW,328,17.0,25.0,55,0.00,,---,0.01,VWS V14.01,2013-04-11 01:21:00,
2013-04-10 19:31:00,28.9,15.2,29.98,NNW,334,17.0,24.0,56,0.00,,---,0.01,VWS V14.01,2013-04-11 01:31:00,
2013-04-10 19:41:00,28.8,15.1,29.99,NNW,338,14.0,24.0,56,0.00,,---,0.01,VWS V14.01,2013-04-11 01:41:00,
2013-04-10 19:51:00,28.4,15.5,29.99,NNW,327,10.0,19.0,58,0.00,,---,0.01,VWS V14.01,2013-04-11 01:51:00,
2013-04-10 20:01:00,28.4,14.7,29.99,North,351,15.0,19.0,56,0.00,,---,0.01,VWS V14.01,2013-04-11 02:01:00,
2013-04-10 20:11:00,28.5,14.0,29.96,NNW,340,19.0,21.0,54,0.00,,---,0.01,VWS V14.01,2013-04-11 02:11:00,
2013-04-10 20:21:00,27.7,14.5,29.96,NW,323,3.0,19.0,57,0.00,,---,0.01,VWS V14.01,2013-04-11 02:21:00,
2013-04-10 20:31:00,26.8,14.0,29.98,NW,323,0.0,12.0,58,0.00,,---,0.01,VWS V14.01,2013-04-11 02:31:00,
2013-04-10 20:41:00,27.5,13.5,29.97,North,360,6.0,27.0,55,0.00,,---,0.01,VWS V14.01,2013-04-11 02:41:00,
2013-04-10 20:51:00,27.0,13.4,30.00,North,350,12.0,16.0,56,0.00,,---,0.01,VWS V14.01,2013-04-11 02:51:00,
2013-04-10 21:01:00,26.8,13.2,30.00,NW,326,16.0,16.0,56,0.00,,---,0.01,VWS V14.01,2013-04-11 03:01:00,
2013-04-10 21:11:00,26.2,13.4,29.99,NNW,342,14.0,17.0,58,0.00,,---,0.01,VWS V14.01,2013-04-11 03:11:00,
2013-04-10 21:31:00,26.1,12.2,30.00,NNW,348,0.0,21.0,55,0.00,,---,0.01,VWS V14.01,2013-04-11 03:31:00,
2013-04-10 21:41:00,25.6,12.9,30.01,NNW,340,8.0,18.0,58,0.00,,---,0.01,VWS V14.01,2013-04-11 03:41:00,
2013-04-10 21:51:00,25.2,12.9,30.01,NNW,344,11.0,18.0,59,0.00,,---,0.01,VWS V14.01,2013-04-11 03:51:00,
2013-04-10 22:01:00,24.9,12.6,30.01,North,360,17.0,23.0,59,0.00,,---,0.01,VWS V14.01,2013-04-11 04:01:00,
2013-04-10 22:11:00,24.9,12.2,29.92,NNW,346,16.0,21.0,58,0.00,,---,0.01,VWS V14.01,2013-04-11 04:11:00,
2013-04-10 22:31:00,24.4,12.5,29.92,NNW,337,17.0,23.0,60,0.00,,---,0.01,VWS V14.01,2013-04-11 04:31:00,
2013-04-10 22:41:00,24.0,12.1,29.93,North,350,16.0,22.0,60,0.00,,---,0.01,VWS V14.01,2013-04-11 04:41:00,
2013-04-10 22:51:00,24.2,11.2,29.93,NNW,340,6.0,22.0,57,0.00,,---,0.01,VWS V14.01,2013-04-11 04:51:00,
2013-04-10 23:11:00,22.4,10.6,29.92,NW,317,6.0,14.0,60,0.00,,---,0.01,VWS V14.01,2013-04-11 05:11:00,
2013-04-10 23:21:00,23.0,10.1,29.89,WNW,290,11.0,20.0,57,0.00,,---,0.01,VWS V14.01,2013-04-11 05:21:00,
2013-04-10 23:31:00,23.0,10.4,29.90,NW,317,13.0,22.0,58,0.00,,---,0.01,VWS V14.01,2013-04-11 05:31:00,
2013-04-10 23:41:00,22.6,10.1,29.90,NW,317,13.0,20.0,58,0.00,,---,0.01,VWS V14.01,2013-04-11 05:41:00,
2013-04-10 23:51:00,23.1,9.4,29.89,NNW,329,14.0,22.0,55,0.00,,---,0.01,VWS V14.01,2013-04-11 05:51:00,